#timestamp,LO_Frequency,Hit,StdDev 
1594044015.7,286047001.1,N
1594044035.5,286046999.2,N
1594044055.3,286046999.2,N
1594044075.2,286047001.2,N
1594044095.0,286047000.7,N
1594044095.9,286047000.7,N
1594044115.8,286047002.4,N
1594044135.6,286047001.7,N
1594044155.5,286047000.3,N
1594044175.3,286046998.2,N
1594044195.1,286047000.1,N
1594044215.9,286046999.8,N
1594044235.7,286047000.9,N
1594044255.6,286046998.1,N
1594044275.4,286046998.8,N
1594044295.2,286046998.8,N
1594044315.1,286046999.9,N
1594044316.0,286046999.9,N
1594044335.8,286047001.6,N
1594044355.7,286047001.2,N
1594044375.5,286046998.2,N
1594044395.3,286046998.6,N
1594044415.2,286046999.3,N
1594044435.0,286046998.7,N
1594044435.9,286046998.7,N
1594044455.8,286046999.1,N
1594044475.6,286046998.8,N
1594044495.4,286046999.8,N
1594044515.3,286047001.1,N
1594044535.1,286046998.1,N
1594044555.9,286047000.6,N
1594044575.7,286046998.5,N
1594044595.5,286046998.6,N
1594044615.4,286046999.1,N
1594044635.2,286046998.7,N
1594044655.1,286046997.5,N
1594044656.0,286046997.5,N
1594044675.8,286046998.2,N
1594044695.6,286046998.9,N
1594044715.5,286046998.4,N
1594044735.3,286046999.3,N
1594044755.2,286046999.0,N
1594044775.0,286046998.8,N
1594044775.9,286046998.8,N
1594044795.8,286047000.7,N
1594044815.6,286047000.8,N
1594044835.4,286046998.1,N
1594044855.3,286046998.1,N
1594044875.1,286047000.4,N
1594044895.9,286047000.8,N
1594044915.7,286046998.6,N
1594044935.6,286046998.2,N
1594044955.4,286046998.6,N
1594044975.2,286046998.7,N
1594044995.1,286046998.4,N
1594044996.0,286046998.4,N
1594045015.0,286046998.5,N
1594045015.9,286046998.5,N
1594045035.8,286046999.5,N
1594045055.6,286046996.7,Y
1594045075.5,286046999.0,P
1594045095.3,286046998.8,P
1594045115.2,286046999.2,P
1594045135.9,286046998.7,Y
1594045155.7,286046998.7,P
1594045175.6,286046998.8,P
1594045195.4,286046996.6,P
1594045215.2,286046999.0,N
1594045235.1,286046999.4,N
1594045236.0,286046999.4,N
1594045255.8,286046999.1,N
1594045275.7,286046998.2,N
1594045295.5,286046999.0,N
1594045315.4,286046999.7,N
1594045335.2,286046999.8,N
1594045355.0,286047000.4,N
1594045355.9,286047000.4,N
1594045375.8,286047001.1,N
1594045395.6,286047001.1,N
1594045415.4,286047001.0,N
1594045435.3,286047000.1,N
1594045455.1,286046999.0,N
1594045475.9,286046998.5,N
1594045495.7,286046998.1,N
1594045515.5,286046998.1,N
1594045535.4,286047000.3,N
1594045555.2,286047001.0,N
1594045575.0,286047000.0,N
1594045576.0,286047000.0,N
1594045595.8,286047000.0,N
1594045615.6,286047000.4,N
1594045635.5,286047000.9,N
1594045655.3,286047001.2,N
1594045675.1,286047000.5,N
1594045695.9,286047002.8,N
1594045715.7,286046999.8,N
1594045735.6,286047000.0,N
1594045755.4,286047000.4,N
1594045775.2,286047000.5,N
1594045795.1,286047000.5,N
1594045796.0,286047000.5,N
1594045815.8,286047000.4,N
1594045835.7,286047000.1,N
1594045855.5,286047000.2,N
1594045875.3,286047000.6,N
1594045895.2,286047000.3,N
1594045915.0,286046999.8,N
1594045915.9,286046999.8,N
1594045935.8,286047002.8,Y
1594045955.6,286047000.8,P
1594045975.4,286047000.3,N
1594045995.3,286046998.1,P
1594046015.1,286047002.4,N
1594046035.8,286047002.1,N
1594046055.7,286047002.7,N
1594046075.5,286047002.7,N
1594046095.4,286047002.6,N
1594046115.2,286047002.7,N
1594046135.0,286047001.9,N
1594046135.9,286047001.9,N
1594046155.8,286047002.6,N
1594046175.6,286047002.7,N
1594046195.4,286047002.6,N
1594046215.3,286047002.6,N
1594046235.1,286047001.6,N
1594046255.9,286047001.7,N
1594046275.7,286047002.3,N
1594046295.5,286047002.3,N
1594046315.4,286047001.8,N
1594046335.2,286047002.2,N
1594046355.1,286047002.5,N
1594046356.0,286047002.5,N
1594046375.8,286047002.7,N
1594046395.6,286047002.0,N
1594046415.5,286047001.6,N
1594046435.3,286047001.6,N
1594046455.1,286047001.8,N
1594046475.9,286047001.6,N
1594046495.7,286047002.3,N
1594046515.6,286047002.6,N
1594046535.4,286047000.6,N
1594046555.2,286046999.2,N
1594046575.1,286046999.0,N
1594046576.0,286046999.0,N
1594046595.8,286047001.0,N
1594046615.7,286047000.9,N
1594046635.5,286046999.8,N
1594046655.3,286047000.0,N
1594046675.2,286047000.7,N
1594046695.0,286047000.0,N
1594046695.9,286047000.0,N
1594046715.8,286047000.1,N
1594046735.6,286047000.1,N
1594046755.4,286047000.9,N
1594046775.3,286047001.1,N
1594046795.1,286047000.6,N
1594046815.9,286047001.1,N
1594046835.7,286047000.6,N
1594046855.5,286047002.8,N
1594046875.4,286046999.7,N
1594046895.2,286046999.1,N
1594046915.0,286046999.0,N
1594046916.0,286046999.0,N
1594046935.8,286046998.7,N
1594046955.6,286047000.8,N
1594046975.5,286046998.5,N
1594046995.3,286047000.2,N
1594047015.1,286047001.5,N
1594047035.9,286047000.1,N
1594047055.7,286046999.9,N
1594047075.6,286046999.9,N
1594047095.4,286047000.0,N
1594047115.2,286047001.0,N
1594047135.1,286047001.6,N
1594047136.0,286047001.6,N
1594047155.8,286047000.6,N
1594047175.7,286047000.5,N
1594047195.5,286046999.3,N
1594047215.3,286046998.5,N
1594047235.2,286047000.6,N
1594047255.0,286046999.8,N
1594047255.9,286046999.8,N
1594047275.7,286047000.8,N
1594047295.6,286046998.3,N
1594047315.4,286047002.6,N
1594047335.3,286047004.4,Y
1594047355.1,286047002.0,P
1594047375.8,286047003.6,P
1594047395.7,286047001.8,N
1594047415.5,286047000.5,N
1594047435.4,286047002.8,N
1594047455.2,286046998.6,N
1594047475.0,286047000.2,N
1594047475.9,286047000.2,N
1594047495.8,286046998.2,N
1594047515.6,286046998.2,N
1594047535.4,286047000.3,N
1594047555.3,286046999.1,N
1594047575.1,286046998.7,N
1594047595.9,286047002.7,N
